PBO Station Position Time Series. Reference Frame : NAM14
Format Version,1.1.0
4-character ID,TNBA
Station name,TNBA_TNET_MX2014
Begin Date, 2014-11-29
End Date, 2020-03-17
Release Date, 2021-08-28
Reference position, 28.9719166046 North Latitude, -113.5472789934 East Longitude, -30.07706 meters elevation,
Date, North (mm), East (mm), Vertical (mm), North Std. Deviation (mm), East Std. Deviation (mm),              Vertical Std. Deviation (mm), Quality,
2014-11-29,0.00, 0.00, 0.00, 1.75, 1.62, 7.31, repro,
2014-11-30,0.60, -0.07, -2.60, 1.79, 1.67, 7.51, repro,
2014-12-01,0.19, 0.50, -1.85, 1.79, 1.66, 7.49, repro,
2014-12-02,-0.59, -1.19, -1.08, 1.84, 1.79, 7.75, repro,
2014-12-03,0.91, -0.31, -4.05, 1.78, 1.65, 7.47, repro,
2014-12-04,0.36, -0.39, -6.90, 1.81, 1.70, 7.58, repro,
2014-12-05,-0.11, 0.02, -9.96, 1.78, 1.65, 7.45, repro,
2014-12-06,-0.51, -0.01, -15.45, 1.79, 1.66, 7.49, repro,
2014-12-07,-1.64, -1.71, -12.40, 1.78, 1.60, 7.33, repro,
2014-12-08,-0.62, -0.54, -9.11, 1.81, 1.68, 7.51, repro,
2014-12-09,0.23, -0.60, -6.45, 1.78, 1.64, 7.44, repro,
2014-12-10,-0.24, -0.69, -8.88, 1.79, 1.66, 7.49, repro,
2014-12-11,1.62, -0.34, -2.35, 1.81, 1.71, 7.57, repro,
2014-12-12,-0.32, 1.39, -7.26, 1.83, 1.68, 7.53, repro,
2014-12-13,1.04, 1.23, -11.22, 1.77, 1.65, 7.43, repro,
2014-12-14,1.08, -0.84, -10.41, 1.74, 1.59, 7.19, repro,
2014-12-15,0.78, -0.14, -6.28, 1.76, 1.69, 7.44, repro,
2014-12-16,0.97, -0.38, -7.35, 1.79, 1.64, 7.40, repro,
2014-12-17,-1.32, -0.67, 4.33, 1.79, 1.60, 7.29, repro,
2014-12-18,0.49, -1.78, -7.98, 1.75, 1.59, 7.27, repro,
2014-12-19,0.16, 0.53, -9.12, 1.77, 1.63, 7.30, repro,
2014-12-20,0.55, -0.37, -8.44, 1.73, 1.59, 7.20, repro,
2014-12-21,0.85, -0.23, -4.00, 1.75, 1.59, 7.25, repro,
2014-12-22,0.39, -0.67, -4.78, 1.74, 1.59, 7.24, repro,
2014-12-23,1.25, -0.35, -6.17, 1.82, 1.69, 7.48, repro,
2014-12-24,1.30, -0.69, -4.34, 1.74, 1.59, 7.29, repro,
2014-12-25,-1.05, -3.56, 1.73, 1.77, 1.66, 7.51, repro,
2014-12-26,1.72, -0.53, -7.92, 1.75, 1.61, 7.30, repro,
2014-12-27,-0.45, 0.10, 4.00, 1.75, 1.59, 7.23, repro,
2014-12-28,-0.08, -0.93, -4.76, 1.74, 1.58, 7.20, repro,
2014-12-29,0.38, 0.88, -9.84, 1.75, 1.59, 7.28, repro,
2014-12-30,0.70, 0.56, -8.14, 1.76, 1.59, 7.28, repro,
2014-12-31,1.28, -3.96, 3.61, 1.77, 1.66, 7.38, repro,
2015-01-01,1.84, -1.66, -5.08, 1.76, 1.59, 7.23, repro,
2015-01-02,0.19, -0.67, -7.47, 1.75, 1.58, 7.20, repro,
2015-01-03,0.92, -0.01, -11.61, 1.76, 1.58, 7.24, repro,
2015-01-04,0.66, 0.89, -10.26, 1.77, 1.60, 7.29, repro,
2015-01-05,-0.28, 0.28, -9.78, 8.16, 5.65, 35.77, supp6,
2015-01-06,0.30, -0.09, -8.99, 1.77, 1.62, 7.34, repro,
2015-01-07,-0.14, 0.05, -9.56, 1.76, 1.61, 7.28, repro,
2015-01-08,-0.05, -0.11, -9.40, 1.77, 1.61, 7.33, repro,
2015-01-09,1.61, -1.24, -8.17, 1.77, 1.67, 7.42, repro,
2015-01-10,-0.09, -0.27, -6.58, 1.75, 1.61, 7.25, repro,
2015-01-11,0.22, -0.39, -15.20, 1.76, 1.60, 7.23, repro,
2015-01-12,1.93, 0.59, -13.19, 1.77, 1.61, 7.28, repro,
2015-01-13,-0.56, 0.38, -16.10, 1.76, 1.60, 7.23, repro,
2015-01-14,0.41, 0.91, -4.02, 1.76, 1.61, 7.28, repro,
2015-01-15,1.14, -1.39, -7.01, 1.75, 1.62, 7.26, repro,
2015-01-16,0.30, -1.95, -2.15, 1.77, 1.60, 7.22, repro,
2015-01-17,-0.85, -1.08, -9.60, 1.84, 1.68, 7.58, repro,
2015-01-18,0.61, -1.38, -10.76, 1.76, 1.60, 7.23, repro,
2015-01-19,0.53, -1.36, -7.74, 1.76, 1.60, 7.23, repro,
2015-01-20,-0.02, -0.57, -4.10, 1.75, 1.60, 7.18, repro,
2015-01-21,-1.26, -1.70, -4.77, 1.77, 1.60, 7.19, repro,
2015-01-22,-0.94, -2.29, -0.61, 1.78, 1.59, 7.21, repro,
2015-01-23,0.88, -2.58, -7.17, 1.86, 1.70, 7.46, repro,
2015-01-24,1.03, -1.09, -2.45, 1.79, 1.63, 7.30, repro,
2015-01-25,-0.35, -2.46, -4.72, 1.75, 1.60, 7.18, repro,
2015-01-26,-1.40, -2.98, -7.53, 1.78, 1.60, 7.24, repro,
2015-01-27,-0.60, -1.84, -6.80, 1.78, 1.60, 7.25, repro,
2015-01-28,-0.65, -2.16, -9.14, 1.78, 1.60, 7.24, repro,
2015-01-29,0.27, -2.08, -11.52, 1.77, 1.59, 7.19, repro,
2015-01-30,0.98, -0.94, -9.08, 1.76, 1.59, 7.19, repro,
2015-01-31,-3.24, -2.26, -3.01, 1.81, 1.66, 7.42, repro,
2015-02-01,-1.00, -2.88, -12.21, 1.78, 1.59, 7.21, repro,
2015-02-02,-0.74, -2.03, -11.55, 1.79, 1.60, 7.28, repro,
2015-02-03,-0.47, -2.18, -10.53, 1.78, 1.59, 7.21, repro,
2015-02-04,-0.18, -1.94, -4.49, 1.77, 1.59, 7.22, repro,
2015-02-05,-0.17, -1.67, -4.32, 1.77, 1.59, 7.23, repro,
2015-02-06,0.07, -2.26, -3.88, 1.87, 1.65, 7.42, repro,
2015-02-07,-0.63, -3.42, -5.63, 1.80, 1.59, 7.27, repro,
2015-02-08,-0.31, -2.19, -7.39, 1.78, 1.59, 7.24, repro,
2015-02-09,0.25, -3.35, -9.96, 1.77, 1.59, 7.20, repro,
2015-02-10,-1.54, -2.80, -6.18, 1.82, 1.61, 7.44, repro,
2015-02-11,-0.86, -3.28, -7.02, 1.85, 1.66, 7.44, repro,
2015-02-12,-1.35, -0.48, -6.84, 1.82, 1.63, 7.39, repro,
2015-02-13,-1.21, -2.28, -9.27, 1.79, 1.60, 7.25, repro,
2015-02-14,0.90, -1.31, -9.20, 1.78, 1.60, 7.24, repro,
2015-02-15,-0.93, -0.26, -5.92, 1.81, 1.63, 7.38, repro,
2015-02-16,-0.74, -2.74, -7.05, 1.79, 1.61, 7.27, repro,
2015-02-17,-1.22, -1.80, -7.61, 1.79, 1.60, 7.23, repro,
2015-02-18,-0.01, -1.90, -11.90, 1.79, 1.60, 7.22, repro,
2015-02-19,0.33, -1.86, -5.84, 1.80, 1.64, 7.38, repro,
2015-02-20,0.27, -1.65, -6.72, 1.81, 1.65, 7.43, repro,
2015-02-21,0.77, 1.18, -1.14, 1.80, 1.61, 7.28, repro,
2015-02-22,-3.50, -3.02, 4.09, 1.81, 1.63, 7.39, repro,
2015-02-23,0.76, -3.06, 16.18, 1.82, 1.61, 7.33, repro,
2015-02-24,0.73, 0.33, -5.93, 1.79, 1.58, 7.17, repro,
2015-02-25,0.33, -0.63, -2.70, 1.79, 1.58, 7.19, repro,
2015-02-26,-0.08, -2.43, -4.81, 1.87, 1.72, 7.52, repro,
2015-02-27,-1.42, 2.27, 7.41, 1.79, 1.60, 7.25, repro,
2015-02-28,2.28, 7.47, 7.94, 1.79, 1.59, 7.21, repro,
2015-03-01,0.67, -3.15, -5.05, 1.78, 1.58, 7.15, repro,
2015-03-02,3.67, -4.98, -11.28, 1.84, 1.67, 7.37, repro,
2015-03-03,0.87, -2.61, 2.43, 1.81, 1.60, 7.27, repro,
2015-03-04,-0.18, -3.40, -4.51, 1.81, 1.65, 7.38, repro,
2015-03-05,-0.06, -2.91, -6.18, 1.86, 1.62, 7.53, repro,
2015-03-06,0.35, -2.23, -8.68, 1.84, 1.59, 7.39, repro,
2015-03-07,0.42, -1.65, -5.90, 1.78, 1.57, 7.12, repro,
2015-03-08,0.78, -2.52, -0.17, 1.81, 1.65, 7.36, repro,
2015-03-09,0.48, -2.19, -3.85, 1.99, 1.87, 7.98, repro,
2015-03-10,0.12, -2.49, -3.80, 1.86, 1.74, 7.52, repro,
2015-03-11,0.16, -2.15, -3.47, 1.79, 1.59, 7.16, repro,
2015-03-12,-0.34, -2.92, -2.66, 1.83, 1.61, 7.50, repro,
2015-03-13,0.09, -3.13, 1.31, 1.80, 1.59, 7.22, repro,
2015-03-14,0.50, -1.72, -0.29, 1.81, 1.61, 7.33, repro,
2015-03-15,0.66, -1.06, -2.50, 1.79, 1.60, 7.23, repro,
2015-03-16,-0.27, -2.41, -4.61, 1.79, 1.60, 7.19, repro,
2015-03-17,-0.37, -2.27, -7.41, 1.78, 1.59, 7.16, repro,
2015-03-18,0.28, -1.13, -7.58, 1.80, 1.64, 7.38, repro,
2015-03-19,1.54, -1.60, -6.68, 1.83, 1.65, 7.51, repro,
2015-03-20,-0.28, -1.56, -8.70, 1.84, 1.63, 7.53, repro,
2015-03-21,-1.13, -2.19, -10.88, 1.83, 1.66, 7.41, repro,
2015-03-22,-2.38, -2.47, -0.93, 1.80, 1.63, 7.34, repro,
2015-03-23,0.02, -1.33, -2.89, 1.80, 1.63, 7.36, repro,
2015-03-24,1.06, -2.25, -7.46, 1.80, 1.63, 7.36, repro,
2015-03-25,0.62, -1.34, 0.40, 2.17, 1.88, 8.70, repro,
2015-03-26,-0.84, -1.94, 2.38, 2.24, 2.15, 9.21, repro,
2015-03-27,-0.22, -1.60, -7.40, 2.14, 1.95, 8.61, repro,
2015-03-28,0.36, -2.05, -2.58, 1.93, 1.71, 7.75, repro,
2015-03-29,0.60, -1.47, -5.45, 1.90, 1.65, 7.74, repro,
2015-03-30,0.04, -1.05, -5.12, 1.89, 1.63, 7.66, repro,
2015-03-31,-0.32, -2.35, -2.88, 1.92, 1.72, 8.02, repro,
2015-04-01,-1.56, -2.98, 7.35, 1.83, 1.66, 7.62, repro,
2015-04-02,0.54, -3.82, 1.10, 1.77, 1.58, 7.16, repro,
2015-04-03,-0.08, -2.75, 2.11, 1.83, 1.69, 7.56, repro,
2015-04-04,-0.55, -2.83, -2.94, 1.80, 1.63, 7.39, repro,
2015-04-05,-0.79, -1.28, -0.15, 1.80, 1.64, 7.44, repro,
2015-04-06,-0.01, -1.53, 3.44, 1.78, 1.60, 7.24, repro,
2015-04-07,-0.79, -2.28, -3.18, 1.79, 1.63, 7.40, repro,
2015-04-08,-0.53, -3.96, 0.85, 1.96, 1.71, 8.02, repro,
2015-04-09,0.15, -3.03, -0.04, 1.77, 1.58, 7.19, repro,
2015-04-10,-0.99, -3.74, -1.27, 1.83, 1.67, 7.54, repro,
2015-04-11,-0.36, -3.95, 3.04, 1.84, 1.67, 7.56, repro,
2015-04-12,0.58, -1.88, 0.29, 1.78, 1.63, 7.36, repro,
2015-04-13,0.12, -2.38, -1.61, 1.79, 1.62, 7.35, repro,
2015-04-14,-0.02, -3.59, -0.02, 1.77, 1.60, 7.20, repro,
2015-04-15,0.79, -0.51, 1.47, 1.81, 1.64, 7.37, repro,
2015-04-16,0.15, -2.46, -0.59, 1.80, 1.65, 7.38, repro,
2015-04-17,-0.88, -2.40, 3.04, 1.76, 1.61, 7.23, repro,
2015-04-18,-0.40, -1.82, 0.32, 1.76, 1.60, 7.19, repro,
2015-04-19,-0.63, -2.64, 3.25, 1.76, 1.60, 7.23, repro,
2015-04-20,-0.04, -1.84, 7.81, 1.78, 1.61, 7.27, repro,
2015-04-21,-0.81, -2.30, 3.91, 1.80, 1.58, 7.23, repro,
2015-04-22,0.11, -1.33, 8.24, 1.79, 1.59, 7.22, repro,
2015-04-23,-2.24, -4.39, 0.42, 1.76, 1.60, 7.22, repro,
2015-04-24,-0.81, 5.52, 17.58, 1.74, 1.57, 7.12, repro,
2015-04-25,0.27, 1.24, 7.91, 1.76, 1.58, 7.19, repro,
2015-04-26,-1.54, -4.46, 9.42, 1.80, 1.59, 7.31, repro,
2015-04-27,-1.11, -1.22, -0.31, 1.74, 1.56, 7.11, repro,
2015-04-28,-0.66, -1.85, 2.23, 1.74, 1.57, 7.13, repro,
2015-04-29,-0.38, -3.09, 4.49, 1.74, 1.56, 7.11, repro,
2015-04-30,0.23, -2.71, -0.68, 1.77, 1.62, 7.24, repro,
2015-05-01,0.14, -3.18, -0.31, 1.78, 1.63, 7.30, repro,
2015-05-02,0.90, -3.46, -4.60, 1.75, 1.57, 7.17, repro,
2015-05-03,0.38, -2.79, -1.19, 1.74, 1.57, 7.13, repro,
2015-05-04,0.37, -1.19, -2.62, 1.73, 1.56, 7.08, repro,
2015-05-05,-0.22, -2.14, -1.88, 1.74, 1.57, 7.12, repro,
2015-05-06,0.60, -0.74, 1.70, 1.74, 1.58, 7.16, repro,
2015-05-07,1.51, -3.62, -0.86, 1.75, 1.57, 7.13, repro,
2015-05-08,1.67, 3.59, 16.46, 1.74, 1.57, 7.13, repro,
2015-05-09,0.20, -2.90, -0.30, 1.73, 1.57, 7.10, repro,
2015-05-10,0.95, -2.72, -5.79, 1.74, 1.57, 7.13, repro,
2015-05-11,0.17, -2.24, -6.22, 1.73, 1.56, 7.11, repro,
2015-05-12,0.09, 0.46, 2.45, 1.81, 1.61, 7.50, repro,
2015-05-13,0.73, -1.63, -2.79, 1.80, 1.60, 7.40, repro,
2015-05-14,1.17, -1.87, 2.58, 1.84, 1.65, 7.60, repro,
2015-05-15,0.38, 1.70, 3.89, 1.74, 1.57, 7.17, repro,
2015-05-16,-0.67, -2.37, -8.30, 1.75, 1.59, 7.22, repro,
2015-05-17,0.84, -2.77, -4.45, 1.73, 1.57, 7.15, repro,
2015-05-18,1.52, -1.96, -2.36, 1.73, 1.57, 7.11, repro,
2015-05-19,1.99, -1.73, -8.51, 1.81, 1.59, 7.43, repro,
2015-05-20,-0.01, -3.35, -7.44, 1.74, 1.57, 7.13, repro,
2015-05-21,-0.04, -0.98, 5.05, 1.76, 1.61, 7.24, repro,
2015-05-22,3.61, 3.04, 6.02, 1.77, 1.68, 7.39, repro,
2015-05-23,2.10, -3.58, -13.76, 1.77, 1.61, 7.17, repro,
2015-05-24,0.86, -2.87, -1.11, 1.72, 1.57, 7.05, repro,
2015-05-25,1.02, -3.21, -1.51, 1.74, 1.58, 7.09, repro,
2015-05-26,0.39, -3.77, -4.61, 1.73, 1.58, 7.09, repro,
2015-05-27,1.46, -4.15, 1.03, 1.72, 1.56, 6.99, repro,
2015-05-28,0.73, -2.79, -4.80, 1.78, 1.58, 7.29, repro,
2015-05-29,0.53, -3.52, -11.01, 1.72, 1.57, 7.00, repro,
2015-05-30,1.13, -3.19, -7.15, 1.73, 1.58, 7.07, repro,
2015-05-31,0.33, -5.07, -5.78, 1.74, 1.58, 7.07, repro,
2015-06-01,0.36, -6.92, -8.44, 1.73, 1.57, 7.02, repro,
2015-06-02,0.84, -8.07, -9.22, 1.74, 1.57, 7.06, repro,
2015-06-03,-4.36, -8.91, -7.12, 1.72, 1.57, 7.04, repro,
2015-06-04,-0.95, 2.39, 4.85, 1.75, 1.59, 7.15, repro,
2015-06-05,3.56, -2.00, 12.06, 1.78, 1.68, 7.35, repro,
2015-06-06,-0.86, -2.42, 12.13, 1.74, 1.58, 7.08, repro,
2015-06-07,0.27, -1.90, -4.13, 1.72, 1.56, 6.97, repro,
2015-06-08,-0.74, -4.82, -1.48, 1.74, 1.60, 7.12, repro,
2015-06-09,-0.02, -5.63, -5.83, 1.73, 1.58, 7.07, repro,
2015-06-10,0.09, -3.34, -0.28, 1.71, 1.57, 6.98, repro,
2015-06-11,2.41, -2.77, -4.37, 1.83, 1.62, 7.22, repro,
2015-06-12,0.06, -3.22, -5.12, 1.73, 1.62, 7.08, repro,
2015-06-13,1.16, -4.17, 2.56, 1.81, 1.67, 7.23, repro,
2015-06-14,0.30, -3.53, -2.78, 1.73, 1.58, 7.03, repro,
2015-06-15,0.76, -3.22, -2.26, 1.74, 1.62, 7.15, repro,
2015-06-16,1.41, -2.86, -8.44, 1.72, 1.57, 6.96, repro,
2015-06-17,0.77, -3.04, 0.65, 1.74, 1.62, 7.04, repro,
2015-06-18,1.50, -4.62, -5.64, 1.77, 1.66, 7.25, repro,
2015-06-19,1.27, -4.07, -2.47, 1.76, 1.64, 7.21, repro,
2015-06-20,0.70, -1.90, -1.76, 1.74, 1.58, 7.03, repro,
2015-06-21,2.22, -3.61, -5.61, 1.72, 1.59, 7.00, repro,
2015-06-22,-0.38, -4.00, 4.56, 1.72, 1.59, 6.99, repro,
2015-06-23,0.93, -3.69, -2.42, 1.84, 1.65, 7.28, repro,
2015-06-24,-0.10, -4.90, -5.42, 1.78, 1.60, 7.20, repro,
2015-06-25,0.67, -3.30, -6.42, 1.77, 1.62, 7.18, repro,
2015-06-26,0.73, -5.66, -2.12, 1.76, 1.59, 7.20, repro,
2015-06-27,0.74, -4.60, -4.68, 1.73, 1.59, 7.03, repro,
2015-06-28,1.16, -4.44, -6.06, 1.73, 1.57, 6.95, repro,
2015-06-29,1.93, -2.53, -1.45, 1.73, 1.58, 7.01, repro,
2015-06-30,-0.68, -3.77, -5.77, 1.80, 1.61, 7.17, repro,
2015-07-01,1.95, -4.07, 3.92, 1.78, 1.61, 7.30, repro,
2015-07-02,-1.19, -3.81, -8.95, 1.77, 1.58, 7.16, repro,
2015-07-03,1.40, -4.49, -2.89, 1.73, 1.57, 6.96, repro,
2015-07-04,0.38, -6.74, -4.13, 1.72, 1.57, 6.93, repro,
2015-07-05,0.79, -4.96, -8.97, 1.75, 1.63, 7.14, repro,
2015-07-06,0.12, -3.66, -4.77, 1.73, 1.59, 7.02, repro,
2015-07-07,-0.49, -5.24, 0.65, 1.73, 1.58, 6.99, repro,
2015-07-08,0.55, -3.63, -4.22, 1.79, 1.72, 7.34, repro,
2015-07-09,2.67, -5.83, -0.09, 1.74, 1.59, 7.04, repro,
2015-07-10,2.97, -2.95, 7.71, 1.75, 1.63, 7.16, repro,
2015-07-11,1.70, -3.27, -3.19, 1.77, 1.64, 7.18, repro,
2015-07-12,0.25, -4.64, -5.65, 1.74, 1.58, 7.02, repro,
2015-07-13,-0.12, -5.33, 1.50, 1.73, 1.57, 6.96, repro,
2015-07-14,1.19, -5.59, -2.35, 1.73, 1.58, 6.97, repro,
2015-07-15,0.26, -5.17, 3.12, 1.72, 1.58, 6.96, repro,
2015-07-16,0.91, -5.12, -1.40, 1.83, 1.76, 7.48, repro,
2015-07-17,0.45, -3.21, -5.37, 1.79, 1.67, 7.26, repro,
2015-07-18,0.56, -4.80, -0.94, 2.13, 1.93, 8.67, repro,
2015-07-19,-0.85, -5.34, 6.25, 1.79, 1.71, 7.44, repro,
2015-07-20,2.24, -3.49, -0.57, 1.74, 1.62, 7.11, repro,
2015-07-21,0.89, -5.25, 8.32, 1.76, 1.65, 7.26, repro,
2015-07-22,-1.36, -4.27, -1.94, 1.75, 1.64, 7.18, repro,
2015-07-23,2.13, -5.08, 1.14, 1.77, 1.65, 7.25, repro,
2015-07-24,0.01, -4.83, 3.97, 1.74, 1.63, 7.13, repro,
2015-07-25,0.89, -5.45, 4.49, 1.74, 1.63, 7.14, repro,
2015-07-26,-0.47, -3.19, 0.55, 1.74, 1.63, 7.20, repro,
2015-07-27,-0.03, -5.52, -3.99, 1.74, 1.63, 7.17, repro,
2015-07-28,-0.27, -4.44, 7.80, 1.82, 1.67, 7.47, repro,
2015-07-29,3.55, -3.55, -0.11, 1.83, 1.67, 7.52, repro,
2015-07-30,0.17, -4.20, -4.13, 1.74, 1.62, 7.09, repro,
2015-07-31,0.35, -5.09, -5.66, 1.78, 1.74, 7.49, repro,
2015-08-01,-0.34, -4.46, 1.76, 1.75, 1.64, 7.20, repro,
2015-08-02,0.49, -4.72, 0.90, 1.75, 1.63, 7.18, repro,
2015-08-03,3.12, -4.05, 0.90, 1.81, 1.66, 7.39, repro,
2015-08-04,0.34, -6.54, -4.62, 1.74, 1.63, 7.15, repro,
2015-08-05,0.90, -5.89, -0.46, 1.75, 1.64, 7.20, repro,
2015-08-06,0.24, -6.47, -3.00, 1.75, 1.64, 7.18, repro,
2015-08-07,-2.37, -6.27, 10.00, 1.75, 1.64, 7.21, repro,
2015-08-08,0.62, -7.61, 4.71, 1.78, 1.69, 7.30, repro,
2015-08-09,2.00, -5.82, 3.72, 1.82, 1.70, 7.46, repro,
2015-08-10,1.21, -4.66, -6.15, 1.75, 1.64, 7.18, repro,
2015-08-11,1.62, -5.90, 5.93, 1.74, 1.62, 7.09, repro,
2015-08-12,2.55, -4.65, 3.46, 1.76, 1.64, 7.22, repro,
2015-08-13,0.82, -6.10, 0.88, 1.77, 1.70, 7.38, repro,
2015-08-14,-0.07, -4.52, 8.72, 1.77, 1.64, 7.23, repro,
2015-08-15,1.35, -6.38, 2.15, 1.74, 1.61, 7.14, repro,
2015-08-16,-0.28, -6.16, -0.75, 1.88, 1.75, 7.86, repro,
2015-08-17,0.83, -3.83, 8.21, 1.74, 1.65, 7.21, repro,
2015-08-18,1.39, -8.21, 11.19, 1.73, 1.61, 7.15, repro,
2015-08-19,1.71, -8.58, -1.54, 1.72, 1.61, 7.10, repro,
2015-08-20,0.81, -5.77, 3.74, 1.72, 1.61, 7.10, repro,
2015-08-21,0.78, -4.55, 0.68, 1.73, 1.62, 7.15, repro,
2015-08-22,1.67, -5.68, 0.91, 1.74, 1.61, 7.11, repro,
2015-08-23,0.94, -7.14, 1.09, 1.75, 1.63, 7.15, repro,
2015-08-24,0.57, -6.00, -2.85, 1.73, 1.61, 7.13, repro,
2015-08-25,0.40, -6.70, -0.23, 1.74, 1.65, 7.28, repro,
2015-08-26,0.28, -5.57, -2.60, 1.72, 1.61, 7.08, repro,
2015-08-27,1.27, -6.36, -6.11, 1.74, 1.61, 7.10, repro,
2015-08-28,1.89, -7.04, -2.90, 1.76, 1.68, 7.28, repro,
2015-08-29,0.99, -4.62, 2.53, 1.72, 1.60, 7.05, repro,
2015-08-30,3.05, -9.06, 8.14, 1.73, 1.61, 7.07, repro,
2015-08-31,3.85, -7.40, -3.82, 1.72, 1.61, 7.06, repro,
2015-09-01,1.66, -7.42, -0.34, 1.77, 1.64, 7.29, repro,
2015-09-02,2.32, -7.06, 1.10, 1.76, 1.62, 7.20, repro,
2015-09-03,1.68, -7.66, 12.03, 1.73, 1.61, 7.16, repro,
2015-09-04,1.63, -5.29, 9.07, 1.73, 1.64, 7.17, repro,
2015-09-05,1.07, -8.33, -6.37, 1.76, 1.64, 7.25, repro,
2015-09-06,1.38, -9.52, -6.34, 1.71, 1.61, 7.04, repro,
2015-09-07,0.01, -6.97, -0.37, 1.72, 1.61, 7.08, repro,
2015-09-08,0.43, -7.62, -4.74, 1.73, 1.62, 7.16, repro,
2015-09-09,1.83, -5.15, 1.17, 1.74, 1.67, 7.25, repro,
2015-09-10,1.15, -8.96, -20.20, 1.76, 1.67, 7.37, repro,
2015-09-11,4.52, -3.83, -22.46, 1.82, 1.74, 7.71, repro,
2015-09-12,0.26, -7.56, -7.56, 1.72, 1.61, 7.06, repro,
2015-09-13,1.17, -6.80, 4.34, 1.71, 1.61, 7.08, repro,
2015-09-14,-0.36, -6.60, 11.27, 1.72, 1.62, 7.12, repro,
2015-09-15,3.01, -6.99, 8.42, 1.73, 1.64, 7.23, repro,
2015-09-16,4.32, -6.80, 0.63, 1.73, 1.63, 7.16, repro,
2015-09-17,2.07, -6.48, 6.00, 1.72, 1.62, 7.08, repro,
2015-09-18,1.66, -7.53, -4.01, 1.71, 1.60, 7.02, repro,
2015-09-19,-0.26, -7.20, 0.51, 1.75, 1.62, 7.30, repro,
2015-09-20,0.67, -6.48, -0.38, 1.77, 1.70, 7.47, repro,
2015-09-21,0.37, -5.87, 2.41, 1.75, 1.61, 7.31, repro,
2015-09-22,0.65, -7.27, 5.08, 1.76, 1.63, 7.41, repro,
2015-09-23,-0.53, -7.21, -7.48, 1.71, 1.60, 7.05, repro,
2015-09-24,1.15, -6.33, -14.84, 1.79, 1.65, 7.36, repro,
2015-09-25,0.52, -5.71, -8.61, 1.71, 1.61, 7.07, repro,
2015-09-26,1.59, -7.64, -4.42, 1.73, 1.61, 7.12, repro,
2015-09-27,1.47, -6.35, -5.03, 1.74, 1.61, 7.14, repro,
2015-09-28,2.07, -6.19, -5.41, 1.81, 1.66, 7.37, repro,
2015-09-29,-1.02, -8.59, -5.47, 1.74, 1.65, 7.22, repro,
2015-09-30,2.51, -7.60, -4.07, 1.80, 1.69, 7.54, repro,
2015-10-01,1.57, -6.66, -0.39, 1.79, 1.69, 7.52, repro,
2015-10-02,-0.87, -5.78, -16.44, 1.77, 1.70, 7.37, repro,
2015-10-03,0.54, -4.71, -1.88, 1.73, 1.62, 7.16, repro,
2015-10-04,1.52, -7.09, 6.08, 1.72, 1.60, 7.06, repro,
2015-10-05,-1.59, -8.26, 5.44, 1.73, 1.68, 7.24, repro,
2015-10-06,2.44, -6.40, 3.67, 1.73, 1.68, 7.23, repro,
2015-10-07,-0.32, -8.24, 0.93, 1.71, 1.62, 7.06, repro,
2015-10-08,2.70, -7.63, 1.31, 1.75, 1.65, 7.22, repro,
2015-10-09,2.17, -6.63, 4.15, 1.72, 1.62, 7.11, repro,
2015-10-10,2.13, -7.82, -6.81, 1.73, 1.65, 7.25, repro,
2015-10-11,1.51, -7.40, 0.99, 1.72, 1.62, 7.12, repro,
2015-10-12,0.23, -6.56, -1.05, 2.02, 1.95, 8.63, repro,
2015-10-13,-0.19, -7.11, -2.57, 1.75, 1.68, 7.29, repro,
2015-10-14,1.50, -7.60, 0.26, 1.74, 1.65, 7.35, repro,
2015-10-15,1.49, -6.85, 3.09, 1.75, 1.63, 7.33, repro,
2015-10-16,1.07, -8.26, 12.18, 1.71, 1.62, 7.11, repro,
2015-10-17,1.03, -6.04, 0.68, 1.70, 1.63, 7.09, repro,
2015-10-18,1.29, -6.82, 0.59, 1.73, 1.67, 7.19, repro,
2015-10-19,3.29, -5.88, 1.82, 1.71, 1.65, 7.14, repro,
2015-10-20,0.91, -2.83, 10.49, 1.77, 1.73, 7.50, repro,
2015-10-21,-1.30, -7.05, 0.84, 1.72, 1.63, 7.11, repro,
2015-10-22,1.59, -6.83, -1.02, 1.70, 1.63, 7.09, repro,
2015-10-23,1.21, -6.36, 4.34, 1.70, 1.62, 7.05, repro,
2015-10-24,1.40, -7.53, 11.40, 1.71, 1.63, 7.10, repro,
2015-10-25,0.88, -6.55, 1.78, 1.72, 1.64, 7.16, repro,
2015-10-26,0.58, -7.62, -4.90, 1.71, 1.62, 7.06, repro,
2015-10-27,0.58, -7.68, 6.23, 1.70, 1.62, 7.03, repro,
2015-10-28,1.51, -8.84, 3.05, 1.70, 1.63, 7.06, repro,
2015-10-29,2.79, -11.68, 0.35, 1.73, 1.66, 7.21, repro,
2015-10-30,3.87, -8.99, 18.25, 1.73, 1.66, 7.28, repro,
2015-10-31,-2.79, -6.88, 8.05, 1.72, 1.64, 7.16, repro,
2015-11-01,1.38, -7.13, 1.92, 1.71, 1.63, 7.07, repro,
2015-11-02,0.67, -7.77, -5.15, 1.70, 1.63, 7.05, repro,
2015-11-03,0.30, -7.47, 1.53, 1.71, 1.65, 7.03, repro,
2015-11-04,4.33, -5.10, 15.57, 1.85, 1.80, 7.69, repro,
2015-11-05,1.79, -6.20, 3.98, 1.76, 1.73, 7.29, repro,
2015-11-06,1.64, -7.47, -4.46, 1.74, 1.67, 7.16, repro,
2015-11-07,1.54, -7.25, 0.70, 1.76, 1.71, 7.25, repro,
2015-11-08,0.66, -7.71, -3.60, 1.72, 1.66, 7.06, repro,
2015-11-09,1.03, -8.83, -8.80, 1.74, 1.70, 7.19, repro,
2015-11-10,2.23, -5.60, -4.25, 1.73, 1.67, 7.17, repro,
2015-11-11,2.40, -7.93, -0.87, 1.73, 1.66, 7.10, repro,
2015-11-12,1.63, -8.02, 0.12, 1.72, 1.66, 7.08, repro,
2015-11-13,2.68, -7.40, -1.98, 1.72, 1.66, 7.11, repro,
2015-11-14,2.11, -7.65, 0.23, 1.72, 1.67, 7.12, repro,
2015-11-15,3.73, -6.08, 1.06, 1.75, 1.71, 7.36, repro,
2015-11-16,-0.11, -13.45, 21.50, 1.77, 1.69, 7.30, repro,
2015-11-17,2.72, -6.92, 1.35, 1.73, 1.67, 7.17, repro,
2015-11-18,2.45, -7.59, 2.33, 1.72, 1.65, 7.06, repro,
2015-11-19,2.98, -9.23, 3.04, 1.71, 1.65, 7.03, repro,
2015-11-20,2.32, -8.06, -2.74, 1.70, 1.65, 7.03, repro,
2015-11-21,1.56, -8.13, -4.55, 1.71, 1.65, 7.05, repro,
2015-11-22,3.13, -7.79, -1.92, 1.73, 1.66, 7.10, repro,
2015-11-23,2.43, -6.63, -0.51, 1.72, 1.66, 7.07, repro,
2015-11-24,2.06, -6.75, -1.94, 1.72, 1.66, 7.08, repro,
2015-11-25,1.46, -12.34, -0.33, 1.73, 1.68, 7.19, repro,
2015-11-26,1.36, -6.35, -13.11, 1.76, 1.70, 7.30, repro,
2015-11-27,1.92, -7.50, -14.14, 1.71, 1.65, 7.04, repro,
2015-11-28,2.68, -6.95, -6.36, 1.72, 1.66, 7.09, repro,
2015-11-29,2.22, -7.03, -8.67, 1.72, 1.66, 7.11, repro,
2015-11-30,2.63, -7.45, -6.43, 1.72, 1.65, 7.09, repro,
2015-12-01,2.21, -7.35, -10.06, 1.71, 1.65, 7.05, repro,
2015-12-02,2.17, -8.19, -9.65, 1.70, 1.65, 7.04, repro,
2015-12-03,2.13, -8.70, -5.39, 1.72, 1.66, 7.13, repro,
2015-12-04,2.03, -7.63, -8.04, 1.71, 1.66, 7.08, repro,
2015-12-05,1.56, -8.31, -7.73, 1.72, 1.67, 7.11, repro,
2015-12-06,2.39, -8.08, -9.23, 1.71, 1.65, 7.08, repro,
2015-12-07,2.24, -7.71, -7.71, 1.72, 1.71, 7.18, repro,
2015-12-08,2.00, -8.20, -4.99, 1.74, 1.72, 7.24, repro,
2015-12-09,2.50, -7.57, -0.38, 1.72, 1.67, 7.20, repro,
2015-12-10,2.09, -8.64, 0.07, 1.75, 1.74, 7.33, repro,
2015-12-11,-0.79, -6.43, -3.69, 1.74, 1.73, 7.26, repro,
2015-12-12,-3.87, -15.95, 1.39, 1.82, 1.78, 7.58, repro,
2015-12-13,1.59, -8.21, -1.06, 1.71, 1.67, 7.15, repro,
2015-12-14,-2.67, -12.79, 14.18, 1.72, 1.63, 7.13, repro,
2015-12-15,3.62, -7.58, 0.27, 1.71, 1.63, 7.07, repro,
2015-12-16,1.98, -7.99, 4.11, 1.71, 1.67, 7.12, repro,
2015-12-17,2.40, -8.54, -6.75, 1.80, 1.72, 7.39, repro,
2015-12-18,2.70, -7.41, -7.31, 1.75, 1.64, 7.17, repro,
2015-12-19,2.52, -7.14, -7.10, 1.69, 1.61, 7.01, repro,
2015-12-20,6.55, -2.24, -18.23, 1.71, 1.62, 7.09, repro,
2015-12-21,2.01, -7.23, -9.25, 1.72, 1.62, 7.10, repro,
2015-12-22,3.26, -6.97, 9.59, 1.71, 1.61, 7.01, repro,
2015-12-23,6.43, -8.73, 15.01, 1.74, 1.63, 7.25, repro,
2015-12-24,1.70, -8.04, -2.33, 1.69, 1.61, 6.96, repro,
2015-12-25,1.56, -8.23, 0.13, 1.69, 1.61, 6.96, repro,
2015-12-26,2.25, -7.91, -8.08, 1.88, 1.77, 8.04, repro,
2015-12-27,-0.61, -8.00, -0.81, 1.74, 1.66, 7.17, repro,
2015-12-28,0.77, -9.01, -9.74, 1.73, 1.62, 7.06, repro,
2015-12-29,2.28, -6.17, -8.56, 1.78, 1.66, 7.30, repro,
2015-12-30,1.57, -8.19, -9.12, 1.69, 1.61, 6.94, repro,
2015-12-31,1.83, -7.31, -9.37, 1.70, 1.61, 7.00, repro,
2016-01-01,1.46, -8.14, -7.58, 1.81, 1.73, 7.55, repro,
2016-01-02,1.05, -7.54, -7.11, 1.90, 1.71, 7.73, repro,
2016-01-03,1.36, -8.58, -10.00, 1.69, 1.61, 6.95, repro,
2016-01-04,2.68, -7.87, -4.25, 1.76, 1.70, 7.30, repro,
2016-01-05,4.34, -3.89, 9.99, 1.71, 1.63, 7.04, repro,
2016-01-06,1.11, -9.92, 0.48, 1.75, 1.70, 7.32, repro,
2016-01-07,-2.20, -9.52, -14.87, 1.76, 1.69, 7.40, repro,
2016-01-08,-1.92, -4.96, -19.46, 1.80, 1.76, 7.59, repro,
2016-01-09,2.08, -8.86, -7.28, 1.72, 1.65, 7.07, repro,
2016-01-10,1.56, -7.44, -7.48, 1.70, 1.62, 6.97, repro,
2016-01-11,1.37, -7.61, -6.55, 1.70, 1.61, 6.94, repro,
2016-01-12,2.07, -7.88, -7.65, 1.71, 1.62, 7.02, repro,
2016-01-13,0.74, -9.20, -4.56, 1.70, 1.61, 6.95, repro,
2016-01-14,1.44, -8.39, -5.57, 1.69, 1.62, 6.96, repro,
2016-01-15,1.65, -7.88, -8.72, 1.74, 1.68, 7.09, repro,
2016-01-16,1.70, -9.50, -6.74, 1.70, 1.62, 6.98, repro,
2016-01-17,2.14, -8.86, -7.06, 1.70, 1.61, 6.96, repro,
2016-01-18,2.52, -9.34, -5.64, 1.73, 1.67, 7.15, repro,
2016-01-19,3.44, -8.04, -11.54, 1.68, 1.61, 6.92, repro,
2016-01-20,2.51, -7.84, -8.24, 1.70, 1.62, 6.99, repro,
2016-01-21,2.18, -8.61, -10.25, 1.71, 1.62, 7.04, repro,
2016-01-22,2.01, -9.65, -10.70, 1.70, 1.61, 6.99, repro,